This demonstration page uses our WeatherBlox Daily Observations layout. Learn more.

Left ArrowRight Arrow

Hourly Observations for July 14, 2018

Temp ( °F °C ) Dew Point ( °F °C ) Humidity (%) Winds ( mph kmh ) Pressure ( in mb ) Visibility ( mi km ) Precip ( " mm )
12:53 am 00:53 Clear 78 25.6 54 12.2 43 43 NW 3 6 29.95 1014 10 16 0.00 0.00
1:53 am 01:53 Clear 77 25 57 13.9 50 50 N 3 6 29.95 1014 10 16 0.00 0.00
2:53 am 02:53 Clear 77 25 57 13.9 50 50 N 5 7 29.94 1014 10 16 0.00 0.00
3:53 am 03:53 Clear 74 23.3 58 14.4 57 57 Calm 29.94 1014 10 16 0.00 0.00
4:53 am 04:53 Clear 72 22.2 59 15 64 64 NNW 3 6 29.95 1014 10 16 0.00 0.00
5:53 am 05:53 Sunny 71 21.7 59 15 66 66 NNE 3 6 29.96 1015 10 16 0.00 0.00
6:53 am 06:53 Sunny 73 22.8 60 15.6 64 64 Calm 29.96 1015 10 16 0.00 0.00
7:53 am 07:53 Sunny 79 26.1 61 16.1 54 54 Calm 29.96 1015 10 16 0.00 0.00
8:53 am 08:53 Sunny 85 29.4 58 14.4 40 40 NNW 5 7 29.96 1015 10 16 0.00 0.00
9:53 am 09:53 Sunny 90 32.2 56 13.3 32 32 Calm 29.95 1014 10 16 0.00 0.00
10:53 am 10:53 Sunny 95 35 55 12.8 26 26 Calm 29.93 1014 10 16 0.00 0.00
11:53 am 11:53 Sunny 97 36.1 53 11.7 23 23 VRB 5 7 29.92 1013 10 16 0.00 0.00
12:53 pm 12:53 Sunny 100 37.8 47 8.3 16 16 WSW 7 11 29.90 1013 10 16 0.00 0.00
1:53 pm 13:53 Sunny 101 38.3 51 10.6 19 19 SSW 7 11 29.88 1012 10 16 0.00 0.00
2:53 pm 14:53 Sunny 104 40 50 10 16 16 SSW 8 13 29.85 1011 10 16 0.00 0.00
3:53 pm 15:53 Sunny 105 40.6 52 11.1 17 17 S 8 13 29.82 1010 10 16 0.00 0.00
4:53 pm 16:53 Sunny 106 41.1 51 10.6 16 16 SSE 13 20 29.80 1009 10 16 0.00 0.00
5:53 pm 17:53 Sunny 105 40.6 52 11.1 17 17 SSE 14 22 29.79 1009 10 16 0.00 0.00
6:53 pm 18:53 Sunny 103 39.4 55 12.8 20 20 SSE 13 20 29.78 1009 10 16 0.00 0.00
7:53 pm 19:53 Sunny 100 37.8 57 13.9 24 24 SSE 9 15 29.79 1009 10 16 0.00 0.00
8:53 pm 20:53 Clear 92 33.3 59 15 33 33 SSE 7 11 29.80 1009 10 16 0.00 0.00
9:53 pm 21:53 Clear 90 32.2 58 14.4 34 34 ESE 5 7 29.83 1010 10 16 0.00 0.00
10:53 pm 22:53 Clear 88 31.1 58 14.4 36 36 N 3 6 29.85 1011 10 16 0.00 0.00
11:53 pm 23:53 Clear 85 29.4 59 15 42 42 NNE 3 6 29.85 1011 10 16 0.00 0.00

Powered by AerisWeather